GW3570 Weather Reports


Display with metric or nautical units.
time (UTC)temp
F
wind
direction
speed
MPH
gust
MPH
rain 1hr
in
rain 24hr
in
rain mn
in
humidity
%
barometer
mb
20260505053135 69 214 2.0 2.0 0.00 0.00 0.00 67 1004.2
20260505052632 69 214 2.0 2.0 0.00 0.00 0.00 67 1004.0
20260505052129 69 179 1.0 2.0 0.00 0.00 0.00 69 1004.2
20260505051626 69 186 1.0 2.0 0.00 0.00 0.00 67 1004.4
20260505051124 70 195 0.0 0.0 0.00 0.00 0.00 69 1004.5
20260505050622 70 198 2.0 2.0 0.00 0.00 0.00 67 1004.6
20260505050120 70 184 1.0 2.0 0.00 0.00 0.00 68 1004.6
20260505041549 71 226 1.0 1.0 0.00 0.00 0.00 62 1005.6
20260505041047 71 191 3.0 3.0 0.00 0.00 0.00 62 1005.3
20260505040544 72 204 2.0 2.0 0.00 0.00 0.00 64 1005.6
20260505040041 71 184 4.0 6.0 0.00 0.00 0.00 62 1005.5
20260505035537 71 197 2.0 3.0 0.00 0.00 0.00 63 1005.6
20260505035034 72 188 3.0 3.0 0.00 0.00 0.00 63 1005.7
20260505034530 72 217 1.0 1.0 0.00 0.00 0.00 63 1005.7
20260505034027 72 202 0.0 0.0 0.00 0.00 0.00 62 1005.8
20260505033524 72 194 0.0 0.0 0.00 0.00 0.00 62 1005.9
20260505033023 72 194 0.0 0.0 0.00 0.00 0.00 63 1005.9
20260505032520 72 188 1.0 1.0 0.00 0.00 0.00 63 1005.7
20260505032016 73 200 1.0 1.0 0.00 0.00 0.00 61 1005.8
20260505031514 73 214 2.0 2.0 0.00 0.00 0.00 59 1005.6
20260505031010 73 181 2.0 2.0 0.00 0.00 0.00 59 1005.7
20260505030507 73 204 4.0 6.0 0.00 0.00 0.00 59 1005.2
20260505030003 73 183 3.0 3.0 0.00 0.00 0.00 59 1005.2
20260505025459 73 206 3.0 3.0 0.00 0.00 0.00 61 1005.3
20260505024958 73 203 0.0 0.0 0.00 0.00 0.00 59 1005.1
20260505024454 74 218 1.0 2.0 0.00 0.00 0.00 59 1005.2
20260505023952 74 221 2.0 2.0 0.00 0.00 0.00 57 1005.0
20260505023448 74 208 1.0 2.0 0.00 0.00 0.00 57 1004.9
20260505022946 74 177 3.0 5.0 0.00 0.00 0.00 59 1005.0
20260505022444 74 222 4.0 5.0 0.00 0.00 0.00 58 1004.8
20260505021941 74 200 2.0 2.0 0.00 0.00 0.00 59 1004.7
20260505021437 74 205 0.0 0.0 0.00 0.00 0.00 63 1004.9
20260505020933 74 197 0.0 0.0 0.00 0.00 0.00 61 1004.7
20260505020428 74 197 4.0 5.0 0.00 0.00 0.00 57 1004.6
20260505015925 74 201 0.0 0.0 0.00 0.00 0.00 59 1004.4
20260505015422 74 211 1.0 2.0 0.00 0.00 0.00 61 1004.4
20260505014920 74 200 0.0 0.0 0.00 0.00 0.00 62 1004.0
20260505014416 74 200 3.0 3.0 0.00 0.00 0.00 59 1004.2
20260505013913 74 175 3.0 3.0 0.00 0.00 0.00 61 1003.9
20260505013410 73 208 1.0 1.0 0.00 0.00 0.00 65 1004.0
20260505012908 73 199 0.0 0.0 0.00 0.00 0.00 65 1004.0
20260505012406 74 186 0.0 0.0 0.00 0.00 0.00 62 1003.9
20260505011902 74 186 0.0 0.0 0.00 0.00 0.00 63 1004.1
20260505011359 74 185 0.0 0.0 0.00 0.00 0.00 61 1003.9
20260505010855 75 171 0.0 0.0 0.00 0.00 0.00 61 1003.7
20260505010351 75 185 0.0 0.0 0.00 0.00 0.00 60 1003.9
20260505005847 75 193 1.0 1.0 0.00 0.00 0.00 59 1003.5
20260505005344 76 198 1.0 2.0 0.00 0.00 0.00 60 1003.6
20260505004842 76 204 3.0 3.0 0.00 0.00 0.00 55 1003.6
20260505004338 77 194 2.0 2.0 0.00 0.00 0.00 58 1003.4
20260505003835 76 210 3.0 3.0 0.00 0.00 0.00 56 1003.3
20260505003333 77 204 1.0 1.0 0.00 0.00 0.00 59 1003.4
20260505002828 77 212 0.0 0.0 0.00 0.00 0.00 56 1003.3
20260505002325 77 190 1.0 1.0 0.00 0.00 0.00 57 1003.4
20260505001824 77 211 3.0 3.0 0.00 0.00 0.00 55 1003.1
20260505001320 77 177 4.0 5.0 0.00 0.00 0.00 55 1003.3
20260505000818 77 190 3.0 3.0 0.00 0.00 0.00 57 1003.5
20260505000315 78 210 3.0 3.0 0.00 0.00 0.00 53 1003.6
20260504235812 78 211 5.0 6.0 0.00 0.00 0.00 52 1003.2
20260504235309 78 201 5.0 7.0 0.00 0.00 0.00 51 1003.3
20260504234806 78 187 4.0 5.0 0.00 0.00 0.00 51 1003.1
20260504234303 78 187 4.0 5.0 0.00 0.00 0.00 53 1003.1
20260504233759 78 179 6.0 7.0 0.00 0.00 0.00 51 1003.3
20260504233255 78 211 4.0 6.0 0.00 0.00 0.00 54 1003.2
20260504232752 78 210 3.0 3.0 0.00 0.00 0.00 52 1003.3
20260504232249 79 204 8.0 10.0 0.00 0.00 0.00 50 1003.4
20260504231746 79 194 9.0 9.0 0.00 0.00 0.00 50 1003.6
20260504231242 79 221 5.0 6.0 0.00 0.00 0.00 52 1003.3
20260504230738 79 180 6.0 8.0 0.00 0.00 0.00 50 1003.4
20260504230237 79 192 7.0 8.0 0.00 0.00 0.00 51 1003.5
20260504225736 80 211 7.0 8.0 0.00 0.00 0.00 50 1003.4
20260504225231 80 226 5.0 6.0 0.00 0.00 0.00 49 1003.5
20260504224729 80 221 6.0 7.0 0.00 0.00 0.00 49 1003.5
20260504224226 80 233 3.0 3.0 0.00 0.00 0.00 50 1003.3
20260504223722 81 248 5.0 6.0 0.00 0.00 0.00 49 1003.4
20260504223218 81 236 6.0 8.0 0.00 0.00 0.00 47 1003.4
20260504222715 81 211 5.0 6.0 0.00 0.00 0.00 48 1003.2
20260504222212 81 255 5.0 6.0 0.00 0.00 0.00 48 1003.4
20260504221709 81 205 7.0 10.0 0.00 0.00 0.00 47 1003.3
20260504221206 81 264 11.0 13.0 0.00 0.00 0.00 47 1003.4
20260504220702 81 216 11.0 14.0 0.00 0.00 0.00 46 1003.5
20260504220200 82 201 10.0 11.0 0.00 0.00 0.00 46 1003.2
20260504215656 81 195 9.0 11.0 0.00 0.00 0.00 45 1003.7
20260504215154 81 194 10.0 13.0 0.00 0.00 0.00 46 1003.6
20260504214649 81 201 7.0 9.0 0.00 0.00 0.00 46 1003.5
20260504214146 81 198 7.0 10.0 0.00 0.00 0.00 45 1003.6
20260504213642 81 243 13.0 15.0 0.00 0.00 0.00 47 1003.8
20260504213139 82 209 4.0 6.0 0.00 0.00 0.00 45 1003.6
20260504212636 82 193 9.0 11.0 0.00 0.00 0.00 46 1003.7
20260504212132 82 225 6.0 9.0 0.00 0.00 0.00 45 1003.6
20260504211630 82 225 7.0 9.0 0.00 0.00 0.00 45 1003.8
20260504211126 82 255 10.0 13.0 0.00 0.00 0.00 45 1003.8
20260504210624 82 196 8.0 11.0 0.00 0.00 0.00 46 1003.7
20260504210120 82 197 8.0 10.0 0.00 0.00 0.00 46 1003.8
20260504205618 81 203 9.0 11.0 0.00 0.00 0.00 46 1003.9
20260504205115 82 209 5.0 6.0 0.00 0.00 0.00 48 1003.8
20260504204614 82 184 7.0 8.0 0.00 0.00 0.00 46 1003.7
20260504204112 82 230 8.0 8.0 0.00 0.00 0.00 46 1003.9
20260504203611 82 236 6.0 6.0 0.00 0.00 0.00 48 1004.0
20260504203108 81 219 6.0 7.0 0.00 0.00 0.00 50 1003.7
20260504202603 82 216 5.0 7.0 0.00 0.00 0.00 47 1004.3
20260504202100 81 223 8.0 11.0 0.00 0.00 0.00 47 1004.2
20260504201557 81 213 13.0 15.0 0.00 0.00 0.00 46 1004.1
20260504201055 81 225 7.0 9.0 0.00 0.00 0.00 50 1004.1
20260504200550 81 189 4.0 5.0 0.00 0.00 0.00 47 1004.1
20260504200048 81 233 4.0 6.0 0.00 0.00 0.00 48 1004.3
20260504195544 81 201 7.0 9.0 0.00 0.00 0.00 45 1004.2
20260504195040 81 247 7.0 9.0 0.00 0.00 0.00 49 1004.6
20260504194537 81 195 6.0 7.0 0.00 0.00 0.00 51 1004.6
20260504194032 81 214 4.0 6.0 0.00 0.00 0.00 48 1004.6
20260504193529 81 225 7.0 8.0 0.00 0.00 0.00 50 1004.5
20260504193028 81 202 6.0 7.0 0.00 0.00 0.00 51 1004.7
20260504192526 80 208 9.0 11.0 0.00 0.00 0.00 49 1004.6
20260504192024 80 224 7.0 10.0 0.00 0.00 0.00 51 1004.7
20260504191521 80 207 5.0 6.0 0.00 0.00 0.00 50 1004.7
20260504191017 79 212 8.0 13.0 0.00 0.00 0.00 48 1004.8
20260504190514 79 224 6.0 8.0 0.00 0.00 0.00 50 1004.8
20260504190010 79 262 5.0 8.0 0.00 0.00 0.00 50 1004.9
20260504185507 79 256 10.0 13.0 0.00 0.00 0.00 50 1004.7
20260504185004 79 244 5.0 6.0 0.00 0.00 0.00 54 1004.8
20260504184459 79 216 5.0 6.0 0.00 0.00 0.00 49 1005.0
20260504183955 79 235 5.0 6.0 0.00 0.00 0.00 54 1005.0
20260504183452 78 213 4.0 5.0 0.00 0.00 0.00 54 1004.8
20260504182950 78 271 5.0 6.0 0.00 0.00 0.00 53 1005.2
20260504182446 78 228 5.0 6.0 0.00 0.00 0.00 52 1005.0
20260504181944 78 179 5.0 7.0 0.00 0.00 0.00 51 1004.7
20260504181441 77 205 5.0 6.0 0.00 0.00 0.00 51 1004.9
20260504180939 77 245 4.0 5.0 0.00 0.00 0.00 55 1005.2
20260504180438 77 241 4.0 5.0 0.00 0.00 0.00 52 1005.2
20260504175936 76 245 4.0 5.0 0.00 0.00 0.00 53 1004.8
20260504175432 76 245 5.0 7.0 0.00 0.00 0.00 53 1005.0
20260504174930 76 188 3.0 5.0 0.00 0.00 0.00 52 1005.2
20260504174427 76 183 6.0 6.0 0.00 0.00 0.00 51 1005.0
20260504173925 76 224 6.0 7.0 0.00 0.00 0.00 52 1004.9
20260504173421 75 191 7.0 8.0 0.00 0.00 0.00 51 1005.1
20260504172919 75 199 7.0 8.0 0.00 0.00 0.00 51 1004.8
20260504172415 74 212 3.0 3.0 0.00 0.00 0.00 52 1005.0
20260504171911 74 204 3.0 3.0 0.00 0.00 0.00 51 1005.5
20260504171408 74 215 5.0 5.0 0.00 0.00 0.00 53 1005.7
20260504170905 74 252 5.0 6.0 0.00 0.00 0.00 52 1005.8
20260504170402 74 218 4.0 5.0 0.00 0.00 0.00 54 1005.9
20260504160320 76 243 4.0 6.0 0.00 0.00 0.00 53 1006.1
20260504150745 74 199 6.0 8.0 0.00 0.00 0.00 49 1005.9
20260504150242 73 241 8.0 8.0 0.00 0.00 0.00 52 1006.3
20260504141212 71 209 8.0 9.0 0.00 0.00 0.00 51 1006.7
20260504140708 71 206 8.0 9.0 0.00 0.00 0.00 52 1006.8
20260504140204 70 203 4.0 7.0 0.00 0.00 0.00 54 1006.9
20260504130632 66 190 2.0 3.0 0.00 0.00 0.00 58 1007.2
20260504130129 66 193 4.0 5.0 0.00 0.00 0.00 58 1007.3
20260504110520 64 181 3.0 3.0 0.00 0.00 0.00 60 1007.5
20260504100443 62 176 0.0 1.0 0.00 0.00 0.00 66 1008.2
20260504081841 64 186 0.0 0.0 0.00 0.00 0.00 61 1008.1
20260504081337 65 157 0.0 0.0 0.00 0.00 0.00 61 1008.3
20260504080833 66 209 0.0 0.0 0.00 0.00 0.00 59 1008.4
20260504080330 65 217 0.0 1.0 0.00 0.00 0.00 59 1008.4
20260504070257 67 203 0.0 0.0 0.00 0.00 0.00 57 1008.8
20260504060218 69 216 4.0 5.0 0.00 0.00 0.00 51 1009.0